Location: Forst
(46.9333°N, 15.4333°E)
Time: 19:46:38
(UTC+00:00)

Cosmos 2237 Rocket - Pass Details

Date: 01 December 2020
Orbit: 833 x 851 km, 71.0° (Epoch: 27 January)

Event Time Altitude Azimuth Distance (km) Brightness Sun altitude
Rises 15:58:30 0° 227° (SW) 3,370 6.9 -8.0°
Reaches altitude 10° 16:01:03 10° 234° (SW) 2,441 6.1 -8.4°
Maximum altitude 16:06:21 43° 305° (NW) 1,166 3.2 -9.2°
Drops below altitude 10° 16:11:43 10° 17° (NNE) 2,464 4.3 -10.0°
Enters shadow 16:13:51 - 23° (NNE) 3,235 4.8 -10.4°
